Wind_Speed
112 112 111 110 108 107 107 107 106 106 106 105 104 104 104 104 104 104 103 103 102 102 101 101 101 100 100 99 99 99 100 100 100 100 100 99 99 99 99 100 100 99 99 99 99 99 99 99 99 99 100 101 100 101 101 101 101 101 101 101 101 101 101 100 97 94 94 95 96 98 100 101 100 100 99 99 100 101 102 103 103 103 104 105 105
117 115 114 113 111 110 110 109 109 109 108 109 108 108 108 107 107 106 106 106 106 106 105 105 105 104 103 103 103 102 102 102 102 102 102 102 101 101 101 102 101 101 101 101 101 101 101 101 100 101 102 103 102 102 102 103 103 102 103 102 102 101 102 101 99 96 95 96 97 97 100 102 102 102 101 101 101 102 103 104 104 104 105 106 107
120 119 117 116 115 114 113 113 113 112 112 111 111 111 110 110 110 110 109 109 109 109 108 108 108 108 108 107 107 107 106 106 106 106 105 105 105 105 105 105 104 104 103 103 103 103 103 102 101 102 103 103 103 103 103 103 104 104 103 103 103 102 103 103 101 99 97 98 98 99 101 103 104 104 104 104 103 103 103 104 104 104 105 107 108
123 122 121 120 119 118 118 117 117 117 116 115 114 113 113 112 112 112 112 112 112 112 111 111 111 112 111 111 111 111 111 111 110 110 110 109 109 109 109 109 108 108 107 107 107 107 106 105 104 104 105 104 103 104 104 104 105 105 104 104 104 104 105 105 104 103 101 100 100 101 102 104 106 107 107 106 105 104 104 104 105 106 107 108 110
126 125 124 123 123 123 122 122 122 121 120 119 119 118 117 117 116 115 115 114 114 114 114 114 114 114 114 114 115 115 115 115 115 114 114 114 114 113 113 113 113 112 111 111 111 111 110 109 108 109 109 108 107 106 107 107 107 107 107 106 107 107 108 108 107 106 105 104 103 104 105 106 107 109 109 109 108 107 107 107 108 109 110 111 113
130 129 128 127 127 127 127 126 125 124 123 123 122 122 122 122 121 120 119 118 117 117 117 117 117 117 116 116 117 117 118 118 118 118 118 118 118 118 117 117 116 116 115 115 115 115 114 113 113 113 112 112 111 111 111 111 111 110 110 110 110 110 111 110 110 110 109 108 108 107 108 108 109 110 111 112 111 111 111 111 112 112 112 113 115
135 134 133 132 131 131 131 130 129 127 127 126 126 125 125 126 125 125 124 123 123 123 122 122 121 121 120 120 119 120 120 120 120 120 121 121 121 121 121 120 119 119 118 118 118 118 117 117 116 116 116 115 115 115 115 115 115 114 114 113 114 114 114 114 114 114 114 113 112 112 111 111 111 112 113 115 115 115 116 116 115 115 115 115 116
139 139 138 137 136 135 134 134 133 133 133 132 131 130 129 129 129 129 128 128 127 127 127 127 126 125 125 124 123 123 122 122 122 123 123 124 124 124 123 123 122 121 121 120 120 120 120 119 119 119 119 119 119 119 119 119 119 119 118 118 118 118 118 118 118 118 117 117 116 116 115 115 115 114 115 116 117 118 119 119 118 117 117 116 116
142 142 142 141 141 140 139 138 137 137 138 138 137 136 135 134 133 133 132 132 132 132 132 131 130 130 129 128 127 127 126 125 125 125 126 126 126 126 126 125 125 124 123 123 122 122 122 122 122 122 122 122 122 122 122 122 123 122 122 122 122 122 122 121 121 121 120 120 119 119 119 118 117 117 117 118 118 120 121 120 119 119 118 117 116
147 146 145 144 143 143 142 141 141 141 142 142 142 142 141 140 139 138 137 136 136 136 136 135 134 133 133 132 131 130 129 129 128 129 129 129 129 128 128 127 126 126 125 125 124 124 124 124 124 124 124 124 124 124 124 125 125 125 125 125 125 125 124 124 123 123 123 122 121 121 121 119 119 119 119 119 120 120 121 121 121 120 119 118 117
153 152 150 149 147 145 144 143 144 145 145 146 147 147 147 146 145 144 142 141 140 140 139 138 137 137 136 135 134 133 132 132 132 132 133 132 132 131 130 129 128 128 127 126 126 125 125 126 126 125 125 125 125 125 126 127 127 127 127 127 127 127 126 125 124 124 124 123 123 122 121 119 119 120 120 120 121 121 121 121 121 121 120 119 118
156 156 155 155 153 151 149 148 148 149 150 150 150 150 151 151 150 149 148 147 146 145 144 142 142 141 140 139 138 137 136 136 136 136 137 136 136 135 134 132 131 130 129 128 128 127 127 127 127 127 127 127 127 127 128 128 128 129 129 129 129 128 127 126 126 125 125 124 123 122 120 119 120 120 120 121 121 121 121 121 121 121 121 120 119
161 160 160 160 159 157 155 154 154 155 155 155 155 155 155 154 154 153 153 152 151 150 149 148 147 146 146 144 143 142 141 141 141 142 142 141 141 140 138 136 134 133 132 131 131 130 130 130 130 130 130 130 130 130 130 130 131 131 131 131 130 129 128 128 127 127 126 125 124 122 121 120 120 120 121 121 121 121 121 121 121 121 121 121 121
164 164 164 164 163 162 161 159 159 159 160 159 159 159 159 158 158 157 157 156 155 154 154 153 152 152 151 150 149 148 147 146 147 147 147 146 145 144 142 140 138 136 135 134 134 133 133 133 133 132 132 132 133 132 132 133 133 133 133 133 131 130 129 128 127 127 127 126 124 122 121 122 121 121 121 122 121 120 120 121 121 121 122 122 123
164 164 164 164 165 165 165 164 164 163 163 162 161 161 161 161 160 160 160 159 158 157 157 157 156 156 156 155 154 152 151 151 151 151 150 150 149 148 146 143 141 139 138 137 136 136 136 135 135 134 134 134 134 134 134 135 135 135 134 133 132 131 129 128 127 127 127 126 125 123 123 122 122 121 121 121 121 120 120 121 122 123 123 124 125
166 165 165 164 164 165 165 166 166 166 166 165 164 163 162 162 162 162 161 161 160 160 159 158 158 157 157 156 156 154 153 152 152 151 151 151 150 149 148 146 144 142 140 139 139 138 138 137 136 136 135 134 133 133 134 134 135 134 134 132 131 130 129 128 127 127 127 126 125 124 124 123 122 121 121 121 121 121 121 122 124 125 126 127 127
167 167 167 166 165 164 164 165 165 166 166 166 166 165 164 163 163 162 162 162 161 161 160 160 158 157 156 155 154 152 151 150 150 150 150 150 150 149 148 147 146 144 142 141 140 140 139 138 137 136 134 133 132 132 132 132 133 132 132 131 130 129 128 128 127 127 127 126 126 125 124 123 122 122 122 122 122 123 124 125 126 128 129 129 130
166 166 167 167 166 166 165 164 164 164 164 164 164 163 163 162 162 162 161 160 160 160 159 159 158 157 155 154 153 151 149 148 148 148 149 148 148 148 148 147 146 144 143 142 141 140 138 137 137 136 134 132 131 131 131 131 131 130 130 129 129 128 127 126 127 127 127 126 126 125 125 124 123 123 124 124 125 126 127 128 130 130 131 131 132
164 164 164 165 165 165 165 165 165 164 164 163 163 162 162 161 161 160 160 159 158 158 158 157 157 156 156 155 154 153 151 150 150 150 149 149 148 148 147 146 145 143 142 141 140 138 137 136 135 135 134 132 131 130 130 130 129 129 129 129 128 127 126 127 128 128 128 127 127 127 127 126 126 127 127 128 129 129 130 131 132 132 133 133 134
165 164 164 164 165 165 165 165 165 165 164 164 164 164 163 162 162 161 161 161 160 159 158 158 157 157 157 156 156 155 154 153 152 152 152 151 150 149 148 146 145 143 142 140 139 137 136 135 134 134 133 133 132 131 130 130 130 131 131 131 130 129 129 130 130 130 131 130 130 130 130 130 130 130 131 131 131 132 132 133 134 134 134 135 136
166 167 167 166 166 166 166 166 166 165 165 165 165 165 165 164 164 163 163 162 162 161 161 160 159 158 158 158 157 157 156 154 154 153 152 152 151 150 149 148 146 145 143 142 140 139 138 137 137 136 136 136 135 135 134 134 134 135 135 135 134 134 134 134 134 134 134 134 134 134 134 133 133 133 133 134 134 134 134 135 136 136 137 137 138
167 168 168 168 168 168 168 168 168 167 167 166 166 166 166 166 165 165 165 164 164 164 163 163 162 161 160 160 159 159 158 157 156 155 154 153 153 152 151 150 149 147 146 144 143 143 142 142 141 141 141 141 140 140 139 139 139 139 139 139 139 138 138 137 137 137 137 137 137 137 136 135 135 135 136 136 136 136 137 137 138 139 139 140 141
165 166 167 167 168 168 169 169 169 169 169 169 168 168 168 168 167 167 167 167 166 166 166 166 165 164 164 163 162 162 161 160 160 159 158 157 156 155 154 153 152 151 150 148 147 146 146 146 146 146 146 145 145 144 144 144 143 143 142 142 142 142 141 140 140 139 139 139 139 138 138 137 137 137 138 138 138 139 140 140 141 142 142 143 143
162 163 164 165 165 166 166 167 168 169 169 169 170 169 169 169 169 169 169 169 169 169 169 168 168 167 167 166 166 165 165 164 163 162 161 160 159 159 158 157 156 155 154 152 151 150 150 150 149 149 149 149 149 149 148 148 147 147 146 145 145 145 144 143 143 142 141 141 141 141 141 141 140 141 141 141 142 142 143 143 143 144 144 145 144
156 157 158 160 160 161 162 163 164 165 166 167 168 169 169 169 170 170 170 170 170 170 170 170 170 170 170 169 169 169 168 168 167 166 165 164 163 162 161 160 159 158 157 156 155 154 153 152 152 152 152 152 152 152 152 152 151 151 150 149 149 148 148 147 146 145 144 143 143 144 144 145 145 144 144 144 144 145 145 145 146 146 146 146 146
152 153 153 154 154 155 155 157 158 159 161 162 163 165 166 167 168 169 169 169 170 170 170 170 170 171 171 171 170 170 170 170 170 170 169 168 167 166 165 164 163 162 160 159 158 157 156 156 155 155 155 155 155 155 155 155 155 154 154 154 153 152 152 151 150 149 148 146 146 146 147 148 148 148 147 147 147 147 147 148 148 148 148 148 148
147 148 149 149 149 150 150 151 152 153 155 156 157 158 160 161 162 164 165 166 167 168 168 169 169 170 170 170 170 170 170 170 170 170 170 170 169 169 168 167 166 165 164 163 162 161 160 159 159 158 158 158 158 158 158 158 158 158 157 157 156 156 155 155 154 152 151 150 150 149 149 149 150 150 150 150 150 150 150 150 150 149 149 149 147
140 141 142 143 144 145 146 147 148 149 150 151 152 153 153 154 155 156 158 159 160 162 163 164 165 166 167 168 168 169 169 169 169 169 169 169 169 169 169 168 168 167 166 165 164 164 163 163 162 162 162 162 161 161 161 160 160 160 160 160 159 159 158 158 157 155 154 153 153 152 152 151 151 152 152 152 152 151 151 151 150 149 148 147 145
132 133 134 136 137 138 139 141 142 143 144 145 146 147 148 149 149 150 151 152 153 154 155 157 158 159 160 161 162 163 164 165 166 166 166 167 167 167 167 167 167 167 166 166 165 165 165 165 165 165 165 165 164 164 163 163 162 162 161 161 161 160 160 159 159 158 156 156 155 155 154 154 153 153 153 153 152 152 151 150 149 147 146 144 142
124 126 127 128 130 131 132 133 134 135 137 138 139 140 141 142 143 144 145 145 146 147 148 149 150 151 152 153 153 154 155 157 158 159 160 160 161 162 162 163 163 163 163 163 164 165 165 166 166 166 166 166 166 166 165 165 164 163 163 162 162 161 161 160 160 159 158 158 157 157 156 155 154 153 153 152 151 150 149 148 146 144 142 140 137
117 119 120 121 122 123 124 125 126 127 129 130 132 133 134 135 136 137 138 139 140 140 141 142 143 143 144 145 146 146 147 148 149 150 151 152 153 153 154 155 155 155 155 156 158 160 162 163 163 164 164 164 164 164 165 165 164 164 163 162 162 161 161 160 160 159 159 158 157 156 155 154 152 151 150 149 147 146 144 143 141 139 137 135 132
113 113 114 115 116 116 117 118 119 119 121 122 124 125 127 128 129 130 131 132 133 134 135 135 135 136 137 138 138 139 139 140 140 141 142 143 144 145 145 145 146 146 146 147 149 151 154 155 156 157 157 158 159 159 160 160 160 160 160 159 158 158 157 157 156 156 156 155 153 152 150 149 147 146 144 142 140 138 136 135 134 132 130 127 125
108 109 110 111 111 112 112 112 113 114 114 115 116 118 119 120 122 123 124 125 126 127 128 128 129 129 130 131 131 132 133 133 133 134 135 135 136 136 136 136 136 136 137 137 139 141 144 146 147 147 148 148 149 150 151 151 152 152 152 152 151 150 150 149 149 149 148 148 146 145 143 141 140 137 135 133 131 129 128 127 126 124 122 120 120
104 105 106 107 108 108 108 108 109 109 110 111 112 113 114 114 115 116 117 118 118 119 119 120 121 122 122 123 124 125 125 126 126 127 127 128 128 128 128 128 128 129 129 130 130 132 135 136 137 138 138 138 139 139 140 140 141 141 142 142 141 140 140 140 140 139 139 138 137 136 135 133 131 129 127 126 124 123 121 121 119 118 116 116 117
100 101 102 103 104 104 105 105 105 106 107 108 108 109 110 110 110 110 111 111 111 111 112 112 112 113 114 115 116 117 117 118 119 119 119 119 120 120 120 120 121 121 122 123 124 125 127 129 129 130 130 130 130 130 131 131 131 131 131 131 132 131 131 131 131 130 130 129 129 128 127 127 125 124 122 121 120 118 117 116 115 114 113 114 115
97 97 97 98 99 100 101 102 102 103 103 104 105 106 107 107 107 107 107 106 106 106 106 106 106 107 107 108 109 109 110 111 111 112 112 112 112 112 112 113 113 114 114 115 116 118 119 120 121 121 122 122 122 122 123 123 123 123 123 124 124 124 124 124 124 124 124 123 123 122 122 122 121 120 119 118 116 115 114 113 112 111 111 112 113
94 94 94 95 96 97 98 99 99 100 100 101 101 102 102 103 103 103 103 103 102 102 102 102 102 102 103 103 103 104 104 105 105 105 104 105 105 105 105 106 107 107 108 108 109 110 112 112 113 113 113 113 114 114 115 115 115 115 115 115 116 116 116 116 116 116 116 116 116 116 116 116 116 116 115 113 112 111 110 109 109 108 108 109 110
91 92 92 93 93 94 95 96 96 96 96 97 97 98 98 98 98 99 99 99 99 99 99 99 99 99 99 99 99 99 100 100 100 99 99 99 99 99 99 99 100 100 101 102 103 104 105 105 106 106 106 106 107 107 108 107 107 108 108 108 107 107 107 107 107 107 108 108 108 108 109 109 109 109 108 107 107 106 106 105 105 104 104 104 105
89 90 90 91 91 92 93 94 94 93 93 94 94 95 94 94 94 94 94 95 95 95 95 95 95 96 96 96 96 96 96 96 96 95 95 95 95 95 94 94 94 95 95 95 96 97 98 99 99 99 100 101 101 102 101 101 101 102 102 102 101 101 101 100 101 101 101 101 101 101 102 102 102 102 102 101 101 101 100 100 100 100 100 100 100
87 88 88 89 89 90 91 92 92 91 91 92 92 92 91 91 90 91 91 92 92 92 92 92 92 93 93 93 93 93 93 93 93 92 92 92 92 91 91 90 90 90 91 91 91 92 93 93 93 94 94 95 96 96 96 96 96 96 97 97 97 97 96 96 96 96 96 96 96 96 96 96 96 96 96 96 96 96 96 95 95 96 96 96 97
86 87 87 87 87 88 89 90 89 89 89 90 90 89 89 88 88 89 90 90 90 89 89 89 90 91 91 90 90 90 90 90 90 90 89 89 89 89 88 88 87 87 87 87 88 88 89 89 89 89 90 90 91 91 91 91 91 92 92 92 92 92 92 92 92 92 92 92 92 92 92 92 91 91 91 91 91 91 91 91 91 92 92 93 93
84 85 85 86 86 87 87 88 88 88 88 88 88 88 87 86 87 88 89 89 89 88 88 88 89 89 89 88 88 88 88 88 88 88 87 87 87 86 86 85 85 84 84 84 85 85 85 86 86 86 86 86 86 87 87 87 87 88 89 89 89 88 88 88 88 88 88 88 88 88 88 88 88 88 88 88 88 87 88 88 88 88 89 89 90
83 83 84 84 85 85 86 86 87 87 86 86 87 86 86 85 86 87 88 88 87 87 87 87 88 88 88 87 86 86 87 86 86 86 86 85 85 85 84 83 83 82 81 82 82 82 82 82 83 83 83 83 83 83 84 84 84 85 85 86 86 85 85 84 84 84 85 85 85 86 85 85 85 85 85 85 85 85 85 86 86 86 87 87 87
82 82 82 83 83 84 84 85 85 86 86 85 86 86 85 85 85 86 86 86 86 85 85 86 87 87 87 86 86 86 86 86 85 85 84 84 84 84 83 83 82 81 80 79 79 80 80 80 80 80 80 80 80 80 81 81 82 82 82 83 83 82 82 82 81 82 82 83 83 83 83 83 83 83 83 83 83 84 84 84 84 84 85 85 85
81 81 82 82 82 82 83 83 84 84 85 85 85 85 85 84 85 85 85 85 85 84 84 84 85 86 86 86 85 85 85 85 85 84 84 83 83 83 82 82 81 80 79 78 78 78 78 78 78 78 77 77 77 77 78 79 79 80 80 80 80 80 80 80 80 80 80 81 81 81 81 81 81 81 82 82 82 82 83 83 83 83 84 84 84
79 80 81 81 81 81 82 82 82 83 83 84 84 84 84 83 84 84 84 84 84 83 82 83 83 84 84 84 84 84 84 84 84 84 83 83 82 82 81 81 80 80 79 78 77 77 76 76 76 76 76 76 75 75 76 76 77 77 78 78 78 78 78 78 78 78 79 79 80 80 80 80 80 80 81 81 82 82 82 82 82 83 83 84 84
77 78 78 79 79 80 80 80 81 81 82 82 82 82 82 82 82 83 83 83 83 83 82 82 82 82 83 83 83 83 83 83 83 83 83 82 81 81 80 80 80 79 79 78 77 76 76 75 75 75 75 74 74 74 74 74 75 75 76 76 76 76 76 76 77 77 77 78 78 79 79 80 80 80 81 81 82 82 82 83 83 83 84 84 84
75 76 76 77 77 78 78 79 79 79 80 80 80 81 81 81 81 81 82 82 82 82 82 81 81 81 82 82 82 82 82 82 83 82 82 82 81 80 80 79 79 78 78 77 77 76 76 75 74 74 74 74 73 73 72 73 73 74 74 75 75 75 74 75 76 76 77 77 77 78 78 79 80 80 81 81 82 82 83 83 84 84 84 84 84
73 74 74 75 75 76 76 77 78 78 79 79 79 79 80 80 80 80 81 81 81 81 81 81 81 81 81 81 81 81 81 82 82 82 82 81 81 81 80 79 79 78 78 77 77 76 76 75 74 73 73 73 73 72 72 71 72 72 72 73 73 74 73 74 75 75 76 76 76 77 77 78 79 80 80 81 82 82 83 83 84 84 85 85 85
70 71 71 72 73 73 74 75 76 76 77 78 78 78 79 79 79 79 80 80 80 80 80 80 80 80 80 80 80 80 81 81 81 81 81 81 81 80 80 79 79 78 78 77 77 76 76 75 74 74 73 72 72 72 71 71 71 71 71 71 71 72 72 72 73 74 75 75 75 76 77 77 78 79 80 80 81 82 83 83 84 84 85 85 85
67 68 69 69 70 71 71 72 73 73 74 75 76 76 77 77 77 78 78 78 79 79 78 79 78 78 78 79 79 79 79 80 80 80 80 80 80 80 79 79 79 78 78 78 77 76 75 75 75 74 73 72 72 71 71 71 71 70 70 70 70 70 70 71 71 72 73 74 75 75 76 76 77 78 79 80 80 81 82 82 83 83 84 84 84
Wind_Direction
251 251 251 251 251 251 251 251 251 251 251 251 251 252 252 253 254 255 255 256 257 257 258 259 259 260 261 261 261 262 262 262 263 264 265 266 266 267 267 268 268 268 268 269 269 269 269 269 270 271 272 272 273 274 275 276 277 278 279 279 280 281 282 283 283 284 284 285 286 287 289 290 290 291 292 292 293 294 294 294 295 295 296 297 298
251 251 252 252 252 252 252 252 252 252 252 252 252 252 253 253 254 254 255 256 256 257 258 259 259 260 261 261 262 262 262 263 263 264 265 265 266 267 268 268 269 269 270 270 271 271 271 272 272 273 273 274 275 276 277 277 278 279 280 280 281 282 283 283 284 285 285 285 286 287 288 289 290 290 291 291 292 292 293 294 294 295 296 297 298
253 253 253 253 253 253 253 253 253 253 253 253 254 254 254 255 255 255 255 256 257 257 258 258 259 260 261 261 262 262 263 263 263 264 264 265 266 267 267 268 269 269 270 270 271 271 272 273 274 274 275 275 276 277 278 278 279 280 280 281 282 282 283 283 284 284 284 284 285 286 286 287 289 289 290 290 291 292 293 294 295 295 296 297 298
256 256 255 255 255 255 254 254 254 253 253 253 254 255 255 256 256 256 256 257 257 258 259 259 259 260 261 261 262 263 263 264 264 265 265 265 266 267 267 268 269 269 270 271 271 272 272 273 274 274 275 275 276 277 277 278 278 279 279 280 281 281 281 282 283 283 283 284 284 285 286 287 288 289 290 290 291 292 292 293 294 295 296 297 298
257 257 257 257 257 257 256 256 255 255 255 255 255 255 255 256 256 256 257 257 258 258 259 260 260 261 261 262 262 263 264 264 265 265 266 266 267 267 268 269 269 270 271 271 272 272 273 273 274 274 275 276 276 277 277 278 278 279 279 280 280 281 281 282 283 283 283 284 284 285 286 287 287 288 289 290 291 291 292 292 293 294 295 296 297
256 257 257 257 257 257 257 257 257 257 257 258 258 258 258 257 257 257 257 257 257 258 259 259 260 260 261 262 263 263 264 265 265 266 266 267 267 268 268 269 270 270 271 272 273 273 274 274 275 275 276 276 277 277 278 278 279 279 280 280 281 281 282 282 283 283 283 284 284 285 286 286 287 288 289 290 290 291 291 291 292 293 295 296 297
257 257 257 257 257 257 257 257 258 258 259 259 260 260 260 260 260 259 259 258 258 258 258 259 259 260 260 261 262 263 264 265 265 266 267 267 267 268 268 268 269 270 271 272 272 273 274 275 275 276 276 277 277 278 278 279 279 280 280 280 281 281 281 282 282 283 284 284 285 285 286 286 287 288 289 289 290 290 290 291 292 293 295 295 296
258 258 259 259 258 258 257 257 258 258 259 259 260 261 261 261 261 261 261 261 260 260 260 260 260 260 261 261 262 262 263 264 265 266 266 267 267 267 268 268 269 269 270 271 271 272 273 274 275 275 276 277 277 278 278 279 279 280 280 280 280 281 281 282 282 283 284 284 285 285 286 286 287 287 288 288 289 289 290 291 292 293 294 295 296
257 258 259 260 260 261 261 260 260 260 260 260 261 261 262 262 261 261 261 261 261 261 261 261 261 261 262 262 262 262 263 264 265 266 266 267 267 268 268 268 268 269 269 270 271 271 272 273 274 275 275 276 277 277 278 278 279 279 279 280 280 281 281 282 282 283 283 284 284 285 285 286 286 287 287 288 288 289 290 291 292 293 294 295 295
255 255 256 257 258 260 261 262 263 263 263 264 264 264 264 264 263 263 262 262 262 262 262 262 262 262 262 263 263 263 263 264 264 265 266 266 267 267 268 268 269 269 270 270 271 271 272 273 273 274 275 275 276 277 277 278 278 279 279 279 280 280 281 281 282 282 283 283 283 284 284 285 286 286 286 287 288 288 289 290 291 293 293 294 294
254 254 255 255 256 256 258 259 261 262 264 265 265 266 266 266 266 266 265 265 264 264 264 264 264 264 264 264 264 264 264 264 264 265 265 266 266 267 267 268 269 269 270 270 271 271 272 272 273 274 274 275 276 276 277 277 278 278 279 279 279 280 280 281 281 281 282 282 283 283 284 285 285 285 286 286 287 288 289 290 291 292 293 293 293
254 254 255 255 255 255 256 256 257 259 260 262 263 264 265 266 266 266 266 266 266 266 266 266 266 266 265 265 265 265 266 266 266 266 266 266 266 266 267 267 268 269 270 270 271 271 271 272 272 273 273 274 275 275 276 277 277 277 278 278 278 279 279 280 280 281 281 281 282 283 284 284 284 285 285 286 286 287 289 290 291 291 292 292 293
254 255 256 256 256 256 256 256 256 257 258 259 261 262 263 264 264 265 266 266 266 267 267 267 267 267 267 267 267 267 267 267 267 267 267 267 267 267 267 267 267 268 269 270 270 271 271 271 271 271 272 273 273 274 275 276 276 276 277 277 277 278 279 279 280 280 281 281 282 282 283 284 284 285 285 286 287 288 289 290 290 291 291 292 292
255 256 256 257 257 257 257 257 257 257 258 258 260 261 262 262 263 264 264 265 266 266 266 267 267 267 267 267 268 268 268 268 268 269 269 269 269 268 268 268 268 268 269 269 270 270 271 271 271 271 272 272 273 274 275 275 276 276 276 277 277 278 278 279 279 280 280 281 282 282 283 283 284 285 285 286 287 288 289 290 290 290 291 291 292
256 257 257 257 258 258 258 258 258 258 258 258 259 260 261 262 262 263 264 264 265 265 266 266 267 267 268 268 268 268 268 269 269 269 269 269 269 269 269 269 269 269 269 270 270 270 271 271 271 271 272 272 273 274 275 275 275 275 276 276 277 277 278 278 279 280 280 281 282 282 283 283 284 285 286 287 287 288 289 289 289 290 291 291 292
256 256 257 258 258 258 259 259 259 259 259 259 259 259 260 261 262 262 263 264 264 265 265 266 266 267 268 268 268 268 268 269 269 269 269 269 270 270 270 270 270 270 270 270 270 271 271 271 271 272 272 272 273 274 274 275 275 275 276 276 276 277 277 278 279 279 280 281 282 282 283 284 284 285 286 287 287 288 288 289 289 290 291 291 292
254 255 256 257 257 258 259 259 259 259 260 260 260 260 260 260 261 261 262 263 263 264 265 265 265 266 266 267 267 267 268 268 268 268 268 269 269 270 270 270 271 271 271 271 271 271 271 271 271 271 272 272 273 273 274 274 275 275 276 276 276 277 277 278 279 279 280 281 281 282 283 283 284 285 285 286 287 287 288 288 289 290 290 291 291
254 254 255 255 256 257 257 258 259 259 260 260 260 260 260 261 261 261 261 261 262 263 263 264 264 265 265 265 266 266 266 267 267 267 268 268 269 269 270 270 271 271 271 271 271 271 271 271 271 272 272 272 272 273 273 274 274 275 275 276 276 277 278 278 279 279 280 280 281 282 282 283 284 284 285 286 286 287 287 288 289 289 290 290 291
254 254 254 255 256 256 257 257 258 258 259 259 260 260 260 261 261 261 261 261 261 262 262 263 263 264 264 264 265 265 265 266 266 267 267 267 268 268 269 269 270 270 270 270 271 271 271 271 272 272 272 272 272 272 273 273 274 275 275 276 276 277 278 278 278 279 280 280 281 281 282 283 283 284 285 285 286 286 287 287 288 288 289 290 290
255 255 255 255 255 256 256 257 257 258 258 259 259 260 260 260 261 261 262 262 262 262 262 262 263 263 263 264 264 264 265 265 265 266 266 267 267 268 268 269 269 269 269 270 270 270 271 271 271 271 271 272 272 272 272 273 273 274 275 275 276 277 277 278 278 279 279 280 280 281 282 282 283 284 284 285 285 286 286 287 287 288 288 289 290
255 255 255 255 255 256 256 256 257 257 258 258 259 259 260 260 261 261 261 262 262 263 263 263 263 263 263 264 264 264 264 264 265 265 266 266 266 267 267 268 268 268 269 269 270 270 270 271 271 271 271 272 272 272 272 273 273 274 275 275 276 276 276 277 278 278 279 279 280 280 281 282 282 283 283 284 284 285 285 286 286 287 288 288 289
255 255 255 256 256 256 256 257 257 257 257 258 258 259 259 260 260 261 261 262 262 263 263 263 263 263 264 264 264 264 265 265 265 265 265 265 266 266 266 267 267 267 268 268 269 269 270 270 271 271 271 272 272 272 272 273 273 274 274 275 275 276 276 276 277 277 278 279 279 280 281 281 282 282 283 283 284 284 285 285 286 286 287 287 288
256 256 256 256 256 256 256 257 257 257 258 258 258 258 258 259 259 260 260 261 261 262 262 263 263 264 264 264 264 264 265 265 265 265 265 266 266 266 266 266 267 267 267 267 268 268 269 269 270 270 271 271 272 272 272 273 273 273 274 274 275 275 275 276 276 277 278 278 279 279 280 280 281 281 282 282 283 283 284 284 285 286 286 286 287
257 257 257 257 257 257 257 257 257 258 258 258 258 259 259 259 259 259 259 260 260 261 261 262 262 263 263 264 264 264 265 265 265 265 265 265 266 266 266 266 267 267 267 267 267 267 268 268 269 269 270 271 271 272 272 272 273 273 273 273 274 274 275 275 276 276 277 277 278 279 279 280 280 280 281 281 282 283 283 284 284 285 285 286 286
258 258 258 258 258 258 258 258 258 258 258 259 259 259 259 259 259 260 260 260 260 260 260 261 261 262 262 263 263 263 264 264 265 265 265 265 265 266 266 266 266 266 266 267 267 267 267 268 268 269 269 270 270 271 271 271 272 272 272 272 273 273 274 274 275 275 276 276 277 278 278 279 279 280 280 281 282 282 283 283 283 284 284 285 286
258 258 258 258 258 258 259 259 259 259 259 259 259 259 259 260 260 260 260 260 260 260 260 261 261 261 261 262 262 262 263 263 264 264 265 265 266 266 266 266 266 266 266 266 266 266 267 267 267 268 268 269 269 269 270 270 271 271 272 272 272 273 273 273 274 274 275 275 276 276 277 278 279 279 280 280 281 281 282 282 283 283 284 284 285
258 258 259 259 259 259 259 259 259 260 260 260 260 260 260 260 260 260 260 260 260 261 261 261 261 261 261 261 261 262 262 262 263 263 264 264 265 265 266 266 266 266 267 267 267 267 267 267 267 267 267 268 268 268 269 269 270 270 271 271 272 272 272 273 273 274 274 275 275 275 276 277 278 278 279 279 280 280 281 281 282 282 283 284 284
258 258 259 259 259 259 260 260 260 260 260 260 260 260 260 260 260 260 260 261 261 261 261 261 261 261 261 261 262 262 262 262 262 262 262 263 263 264 264 265 265 266 266 267 267 267 267 267 267 267 267 268 268 268 268 268 269 269 270 271 271 272 272 273 273 273 274 274 275 275 275 276 276 277 277 278 279 279 280 280 281 281 282 282 283
258 259 259 259 259 259 259 259 260 260 260 260 260 261 261 261 261 261 261 261 261 261 262 262 262 262 262 262 262 262 262 263 263 262 263 263 263 263 264 264 264 265 265 266 266 266 267 267 267 267 267 268 268 268 268 268 268 269 269 270 270 271 271 272 273 273 273 274 274 275 275 275 276 276 277 277 278 278 279 279 280 280 280 281 281
258 259 259 259 259 259 259 259 259 260 260 260 261 261 261 261 261 262 262 262 262 262 262 262 262 263 263 263 263 263 263 263 263 264 264 263 263 263 263 264 264 264 265 265 265 266 266 266 266 266 267 267 267 268 268 268 268 269 269 269 270 270 271 271 272 272 273 273 274 274 274 275 275 276 276 277 277 277 278 278 279 279 279 279 279
258 258 259 259 259 259 259 260 260 260 260 260 261 261 261 261 261 262 262 262 262 262 262 262 263 263 263 263 263 263 263 264 264 264 264 264 264 264 264 264 264 264 264 265 265 265 265 265 265 265 266 266 267 267 267 268 268 269 269 269 270 270 271 271 271 272 272 272 273 273 274 274 275 275 275 276 276 276 277 277 277 277 278 278 278
258 258 258 258 259 259 259 259 260 260 260 260 260 261 261 261 261 261 262 262 262 262 262 263 263 263 263 264 264 264 264 264 264 264 264 265 265 265 265 265 265 265 265 265 265 265 265 265 265 265 265 266 266 267 267 267 268 268 269 269 269 270 270 271 271 271 272 272 272 273 273 273 274 274 274 275 275 275 275 275 276 276 276 277 277
257 257 257 258 258 258 258 258 259 259 259 260 260 260 260 261 261 261 261 262 262 263 263 263 264 264 264 264 264 265 265 265 265 265 265 265 265 265 265 265 265 265 265 265 265 265 265 265 266 266 266 266 266 266 267 267 267 268 268 269 269 269 270 270 270 271 271 272 272 272 272 272 272 272 273 273 273 273 273 274 274 274 275 275 275
256 257 257 257 257 258 258 258 258 258 259 259 260 260 260 260 261 261 262 262 262 263 263 264 264 265 265 265 265 265 266 266 266 266 266 266 266 266 266 266 266 266 265 265 265 265 265 265 266 266 266 266 266 266 266 267 267 268 268 268 269 269 269 269 269 270 270 270 271 271 271 271 271 271 271 271 271 271 271 272 272 272 273 273 273
256 256 257 257 257 257 257 258 258 258 258 258 259 260 261 261 261 262 262 263 263 263 263 264 264 265 265 265 265 266 266 266 266 266 266 266 266 267 267 266 266 266 266 266 265 265 265 266 266 266 266 266 266 267 267 267 267 267 267 268 268 268 268 268 268 269 269 269 270 270 270 270 270 270 270 270 270 270 270 270 270 271 271 270 271
256 256 256 257 257 257 257 257 257 258 258 258 259 259 260 261 262 262 262 263 263 264 264 264 264 264 264 265 265 265 265 266 266 266 266 266 267 267 267 267 267 266 266 266 266 266 266 266 267 267 267 267 267 267 267 267 267 267 267 267 267 267 268 268 268 268 268 268 269 269 269 269 269 269 269 269 269 269 269 269 269 269 269 269 270
257 257 256 256 257 257 257 257 257 257 258 258 258 259 260 260 261 262 262 263 263 263 264 264 264 264 264 265 265 265 266 266 266 266 266 267 267 266 266 267 267 266 266 266 266 266 267 267 267 267 268 268 268 268 268 268 268 268 267 267 267 267 268 268 268 268 268 268 268 268 268 268 269 269 269 269 269 269 269 268 268 268 268 268 269
257 257 256 256 256 257 257 257 258 258 258 258 259 259 259 260 261 261 262 262 262 263 263 263 264 264 265 265 265 265 266 266 266 266 267 267 267 267 267 267 267 267 267 267 267 267 267 267 267 267 267 268 268 268 268 268 268 268 268 268 268 268 268 268 268 267 267 267 267 267 267 268 268 268 268 268 268 268 268 268 268 267 267 268 268
257 257 257 256 256 256 257 257 258 258 258 259 259 259 260 260 260 261 261 262 262 262 263 263 264 264 264 264 265 265 265 266 266 266 267 267 267 267 267 267 267 267 267 267 267 267 267 267 267 267 267 267 267 268 268 268 268 268 268 268 268 268 268 267 267 267 267 267 267 267 267 267 267 268 268 268 267 267 267 267 267 267 267 267 267
258 257 257 257 256 256 256 257 257 258 258 258 259 259 260 261 261 261 261 262 262 262 263 263 263 264 264 264 265 265 265 266 266 266 266 267 267 267 267 267 267 267 267 267 267 267 267 267 267 267 267 267 268 268 268 268 268 268 268 268 268 268 267 267 267 267 267 267 266 266 266 266 267 267 267 267 267 267 267 266 266 266 266 266 266
257 257 257 257 257 256 256 257 257 257 257 258 258 259 259 260 260 261 261 261 262 262 262 263 263 263 264 264 264 265 265 266 266 266 266 266 267 267 267 267 267 268 268 268 268 268 268 268 268 268 268 268 268 268 268 268 268 268 268 267 267 267 267 267 267 267 267 266 266 266 266 266 266 266 266 266 266 266 266 266 266 266 266 266 266
256 256 256 257 257 257 257 257 257 257 257 257 258 258 259 259 259 260 260 261 261 262 262 262 263 263 263 264 264 265 265 265 265 266 266 266 267 267 267 267 267 268 268 268 268 268 268 268 268 268 268 268 268 268 268 268 268 268 268 268 267 267 267 267 267 267 266 266 266 266 266 266 266 266 266 266 266 266 265 265 265 265 265 265 265
255 255 256 256 256 256 256 257 257 257 257 257 258 258 258 258 258 258 259 260 260 260 261 261 262 263 263 264 264 264 265 265 265 266 266 266 267 267 267 267 267 267 267 268 268 268 268 268 269 268 268 268 268 268 268 268 267 267 267 268 268 267 267 267 266 266 266 266 266 266 266 266 266 265 265 265 265 265 265 265 265 265 265 265 265
256 255 255 255 255 255 256 256 256 257 257 257 257 258 258 257 258 258 258 259 259 260 260 261 261 262 263 263 264 264 264 265 265 265 266 266 267 267 268 268 268 268 267 268 268 268 268 268 268 269 269 268 268 268 268 267 267 267 267 267 267 267 267 267 266 266 265 265 265 265 265 265 265 265 265 265 265 265 265 265 265 265 265 265 266
257 256 256 255 255 255 255 255 256 256 256 257 257 257 257 257 258 258 259 259 259 259 260 260 261 262 262 263 263 264 264 265 265 265 266 266 266 267 267 268 268 268 268 268 268 268 268 268 268 268 268 268 268 268 268 267 267 267 267 267 267 267 266 266 266 265 265 265 265 265 265 265 265 265 265 265 265 265 265 265 265 265 265 266 266
258 258 257 257 256 256 255 255 256 256 256 256 257 257 257 258 258 258 259 259 260 260 260 260 260 261 262 263 263 264 264 265 265 265 266 266 266 266 267 267 268 268 268 268 268 268 268 268 269 269 269 269 268 268 268 267 267 267 267 266 266 266 266 265 265 265 265 265 265 265 265 265 265 265 264 265 265 265 265 265 265 266 266 267 267
259 259 259 258 258 258 257 257 257 257 257 257 257 258 258 258 258 258 258 259 260 260 260 260 260 261 261 262 263 263 264 265 265 266 266 266 266 266 267 267 267 268 268 268 268 268 268 268 268 268 269 268 268 268 268 268 267 267 267 267 266 266 265 265 265 264 264 264 264 264 264 264 264 264 264 264 265 265 265 266 266 266 267 267 268
260 259 259 259 259 259 259 258 258 258 258 258 258 258 258 258 258 258 258 259 259 259 260 260 260 260 261 262 262 263 263 264 265 265 266 266 267 267 267 267 267 268 268 268 268 268 268 268 268 268 268 268 268 268 268 268 267 267 267 267 267 266 265 264 264 264 264 264 264 264 264 264 264 264 264 264 265 265 265 266 266 267 267 268 269
261 261 261 260 260 260 260 259 259 258 258 258 258 257 258 258 258 258 258 258 258 259 259 259 259 260 260 261 261 262 262 263 264 265 265 266 266 267 267 268 268 268 268 268 268 268 268 268 268 268 268 268 268 268 268 268 267 267 267 267 267 266 265 264 264 264 264 264 263 263 263 263 264 264 264 264 265 265 265 266 266 267 268 268 269
263 263 262 262 261 261 261 261 260 260 260 260 259 259 258 258 258 258 258 258 258 258 258 259 259 259 259 260 260 261 261 262 263 264 264 265 266 266 267 267 268 268 268 268 268 268 269 269 269 268 268 268 268 268 268 268 268 267 267 267 267 266 266 265 264 264 264 264 263 263 263 263 263 264 264 264 265 265 266 266 267 267 268 269 269
262 262 262 262 261 261 261 261 260 260 261 261 261 261 260 260 260 259 259 259 259 259 259 259 259 259 259 259 260 260 260 261 262 263 263 264 265 265 266 266 267 267 268 268 268 268 268 268 269 269 269 268 268 268 268 268 268 268 268 268 267 267 267 266 265 264 264 264 263 263 263 263 263 264 264 265 265 265 266 266 267 267 268 269 269
Height
10621 10624 10628 10633 10637 10640 10642 10644 10646 10648 10650 10651 10653 10653 10654 10655 10656 10657 10658 10659 10658 10659 10661 10660 10660 10661 10661 10662 10662 10661 10661 10661 10659 10658 10659 10660 10660 10659 10659 10657 10659 10661 10660 10660 10661 10659 10660 10661 10661 10659 10655 10654 10655 10652 10652 10651 10649 10648 10646 10645 10643 10641 10638 10638 10644 10650 10646 10639 10635 10628 10619 10617 10619 10620 10620 10620 10617 10614 10611 10607 10605 10603 10598 10594 10592
10605 10609 10614 10619 10623 10626 10629 10631 10632 10634 10636 10637 10638 10639 10641 10642 10643 10644 10646 10646 10645 10647 10648 10648 10648 10649 10649 10650 10649 10649 10649 10649 10648 10648 10648 10649 10648 10648 10647 10646 10647 10648 10648 10649 10648 10646 10647 10650 10651 10648 10643 10644 10645 10643 10642 10640 10638 10637 10635 10633 10633 10631 10628 10626 10629 10635 10635 10629 10625 10622 10613 10606 10607 10608 10608 10609 10608 10604 10600 10596 10594 10592 10588 10584 10581
10592 10596 10601 10606 10609 10612 10614 10616 10616 10617 10620 10621 10623 10626 10628 10629 10629 10631 10633 10632 10632 10634 10634 10635 10635 10635 10636 10637 10636 10636 10637 10637 10637 10637 10637 10637 10637 10636 10635 10634 10635 10636 10636 10637 10635 10633 10635 10638 10639 10636 10632 10633 10635 10633 10631 10629 10626 10625 10624 10622 10622 10621 10616 10615 10617 10622 10623 10620 10616 10613 10607 10599 10597 10595 10595 10597 10597 10595 10590 10586 10583 10581 10578 10574 10571
10579 10583 10588 10591 10594 10596 10597 10598 10598 10599 10602 10605 10609 10611 10613 10615 10615 10617 10619 10619 10620 10620 10621 10621 10621 10622 10623 10623 10623 10623 10624 10624 10624 10624 10625 10624 10624 10624 10623 10622 10623 10624 10624 10624 10623 10621 10623 10626 10627 10623 10620 10622 10624 10622 10619 10617 10615 10614 10614 10612 10611 10609 10605 10604 10606 10608 10609 10610 10607 10603 10599 10594 10588 10584 10583 10584 10585 10583 10580 10576 10572 10569 10567 10564 10561
10564 10567 10571 10574 10576 10577 10578 10578 10579 10582 10586 10590 10594 10596 10598 10599 10601 10603 10605 10606 10608 10607 10607 10607 10607 10608 10610 10610 10610 10611 10610 10611 10611 10612 10611 10610 10611 10611 10610 10610 10610 10611 10611 10611 10610 10609 10610 10613 10614 10610 10609 10611 10612 10610 10606 10604 10602 10602 10602 10601 10598 10597 10594 10593 10593 10593 10595 10598 10596 10592 10590 10586 10580 10575 10572 10572 10572 10571 10568 10565 10562 10559 10557 10554 10549
10547 10551 10553 10556 10558 10558 10559 10560 10564 10568 10572 10575 10577 10579 10581 10583 10585 10587 10589 10592 10594 10593 10592 10593 10593 10595 10597 10597 10598 10598 10597 10597 10599 10599 10598 10596 10596 10597 10597 10597 10597 10598 10599 10598 10598 10597 10598 10600 10600 10597 10597 10598 10598 10596 10593 10590 10589 10589 10590 10589 10586 10583 10582 10581 10580 10579 10580 10583 10583 10581 10579 10576 10571 10566 10561 10559 10559 10558 10555 10552 10551 10550 10548 10544 10537
10531 10534 10536 10539 10540 10541 10543 10546 10550 10553 10555 10557 10560 10562 10564 10566 10568 10570 10572 10575 10578 10577 10576 10578 10579 10580 10583 10584 10585 10585 10585 10586 10586 10586 10584 10582 10581 10582 10583 10584 10585 10586 10586 10586 10585 10585 10585 10586 10586 10585 10584 10584 10584 10582 10579 10577 10576 10576 10577 10575 10572 10570 10570 10569 10567 10566 10567 10568 10568 10567 10566 10563 10562 10558 10551 10546 10545 10544 10540 10538 10540 10539 10536 10532 10527
10516 10517 10519 10521 10523 10526 10529 10532 10535 10536 10538 10540 10542 10544 10547 10549 10551 10553 10555 10557 10560 10560 10559 10561 10563 10565 10568 10570 10571 10571 10572 10574 10574 10571 10569 10567 10566 10567 10569 10570 10571 10573 10574 10574 10574 10573 10574 10574 10573 10572 10571 10570 10570 10568 10566 10564 10562 10563 10563 10560 10558 10558 10558 10557 10555 10554 10554 10555 10555 10553 10551 10551 10550 10547 10541 10536 10531 10528 10524 10524 10527 10526 10522 10520 10516
10499 10501 10503 10505 10507 10510 10513 10516 10518 10519 10520 10522 10523 10525 10528 10530 10533 10536 10538 10540 10541 10542 10542 10544 10548 10550 10551 10553 10555 10556 10558 10560 10560 10556 10553 10552 10552 10552 10554 10556 10557 10559 10561 10562 10562 10562 10562 10561 10560 10559 10558 10557 10556 10555 10553 10550 10548 10548 10548 10546 10544 10544 10544 10544 10543 10542 10541 10541 10541 10539 10537 10539 10538 10533 10529 10525 10520 10515 10511 10510 10512 10511 10508 10506 10503
10480 10484 10487 10490 10493 10496 10498 10500 10501 10501 10501 10502 10503 10504 10507 10510 10513 10516 10519 10521 10523 10524 10526 10528 10532 10534 10535 10536 10538 10540 10543 10545 10544 10541 10538 10537 10538 10538 10539 10541 10543 10545 10547 10549 10551 10550 10549 10548 10547 10546 10544 10543 10543 10541 10539 10536 10534 10534 10534 10531 10530 10530 10530 10531 10531 10530 10528 10527 10528 10526 10525 10528 10526 10519 10516 10513 10507 10504 10501 10498 10497 10497 10495 10492 10489
10462 10466 10470 10474 10478 10482 10486 10488 10488 10486 10484 10483 10483 10484 10486 10488 10492 10495 10498 10500 10503 10505 10508 10512 10514 10515 10517 10520 10522 10524 10526 10527 10527 10524 10522 10521 10522 10522 10524 10527 10529 10530 10533 10536 10538 10538 10537 10535 10534 10533 10531 10530 10529 10526 10524 10522 10520 10520 10519 10517 10516 10516 10517 10517 10517 10516 10514 10514 10515 10513 10513 10516 10511 10505 10503 10500 10494 10491 10490 10488 10485 10482 10479 10477 10476
10445 10448 10452 10456 10461 10466 10471 10474 10473 10472 10470 10469 10468 10468 10468 10469 10470 10472 10475 10478 10482 10485 10489 10492 10494 10496 10497 10501 10505 10507 10509 10510 10508 10506 10504 10504 10504 10505 10509 10513 10515 10517 10519 10521 10523 10524 10523 10521 10520 10519 10517 10516 10514 10511 10510 10508 10506 10504 10503 10502 10502 10503 10504 10503 10502 10501 10500 10500 10501 10501 10501 10500 10496 10492 10490 10486 10481 10480 10479 10476 10472 10468 10465 10463 10461
10429 10431 10433 10436 10441 10447 10452 10455 10455 10454 10454 10454 10453 10452 10452 10452 10452 10453 10455 10458 10461 10465 10468 10471 10473 10475 10477 10480 10485 10489 10492 10493 10489 10485 10485 10486 10486 10487 10492 10497 10501 10503 10505 10506 10507 10508 10507 10506 10505 10504 10503 10501 10499 10498 10496 10494 10491 10488 10487 10487 10488 10489 10490 10488 10487 10486 10484 10484 10486 10489 10488 10483 10481 10480 10475 10471 10469 10468 10466 10463 10459 10455 10452 10450 10447
10410 10413 10416 10417 10420 10424 10430 10434 10436 10435 10436 10437 10437 10436 10435 10435 10436 10436 10437 10439 10442 10445 10447 10449 10452 10454 10456 10459 10464 10470 10474 10474 10470 10466 10466 10467 10467 10468 10473 10479 10484 10487 10490 10491 10490 10490 10490 10489 10488 10489 10489 10486 10484 10483 10481 10477 10475 10473 10472 10472 10474 10475 10474 10474 10473 10471 10468 10467 10471 10475 10473 10468 10466 10465 10461 10457 10457 10455 10452 10449 10445 10442 10439 10437 10433
10390 10393 10396 10398 10400 10403 10406 10410 10413 10414 10415 10418 10419 10419 10418 10418 10418 10418 10419 10422 10424 10426 10428 10429 10431 10434 10436 10438 10442 10449 10454 10453 10450 10447 10447 10447 10447 10449 10454 10459 10464 10468 10472 10473 10473 10472 10472 10471 10471 10473 10474 10472 10469 10467 10464 10461 10458 10457 10457 10458 10459 10459 10459 10460 10459 10456 10453 10453 10455 10458 10456 10453 10452 10451 10447 10444 10443 10442 10439 10435 10431 10428 10426 10423 10420
10373 10374 10376 10378 10379 10381 10383 10386 10389 10391 10393 10396 10399 10401 10401 10401 10401 10401 10402 10404 10406 10407 10409 10411 10413 10415 10417 10418 10420 10427 10433 10434 10429 10427 10428 10427 10428 10430 10434 10439 10443 10448 10453 10455 10453 10453 10453 10453 10454 10455 10456 10457 10455 10452 10448 10444 10441 10440 10442 10444 10444 10444 10445 10446 10444 10441 10440 10439 10439 10440 10440 10438 10437 10436 10433 10431 10430 10428 10425 10421 10418 10415 10411 10409 10407
10354 10355 10356 10357 10359 10360 10362 10364 10366 10368 10371 10374 10377 10379 10381 10383 10384 10384 10385 10387 10388 10388 10389 10392 10395 10397 10399 10400 10401 10405 10413 10415 10410 10407 10409 10409 10409 10412 10416 10419 10423 10428 10433 10435 10433 10433 10435 10436 10436 10436 10439 10441 10439 10436 10432 10428 10425 10425 10427 10428 10428 10429 10432 10432 10428 10426 10425 10424 10423 10424 10425 10423 10423 10422 10420 10418 10416 10413 10410 10407 10404 10401 10398 10396 10393
10333 10335 10336 10337 10339 10340 10342 10343 10345 10347 10350 10352 10355 10357 10359 10361 10363 10364 10366 10368 10370 10370 10370 10373 10376 10378 10379 10381 10382 10385 10392 10396 10391 10387 10390 10392 10392 10395 10398 10400 10404 10409 10411 10413 10413 10414 10417 10418 10417 10417 10421 10423 10422 10418 10417 10414 10411 10411 10412 10411 10412 10416 10419 10417 10412 10409 10410 10410 10409 10409 10409 10409 10409 10407 10405 10403 10401 10399 10397 10393 10390 10386 10384 10382 10378
10312 10315 10317 10319 10320 10320 10321 10323 10325 10328 10330 10331 10333 10335 10338 10340 10341 10343 10344 10347 10350 10352 10352 10354 10357 10359 10359 10361 10364 10366 10371 10376 10374 10369 10371 10374 10374 10377 10380 10382 10386 10390 10391 10392 10395 10397 10399 10400 10399 10398 10400 10403 10403 10402 10401 10400 10397 10396 10396 10394 10397 10403 10405 10399 10394 10394 10394 10394 10394 10394 10393 10394 10394 10392 10390 10388 10386 10385 10382 10379 10375 10372 10370 10367 10364
10291 10294 10296 10298 10299 10300 10300 10302 10305 10307 10310 10311 10313 10314 10317 10319 10321 10322 10323 10325 10328 10331 10333 10335 10338 10340 10340 10340 10343 10347 10350 10354 10355 10352 10352 10355 10357 10357 10360 10363 10367 10369 10370 10373 10377 10379 10380 10381 10382 10381 10381 10382 10383 10384 10385 10384 10382 10381 10379 10378 10383 10388 10386 10380 10379 10380 10378 10377 10378 10378 10378 10379 10379 10377 10375 10372 10371 10370 10368 10364 10360 10358 10356 10353 10349
10268 10271 10273 10275 10277 10279 10280 10282 10284 10287 10289 10292 10294 10295 10296 10298 10300 10302 10303 10305 10306 10309 10311 10313 10317 10320 10321 10320 10322 10325 10327 10331 10335 10335 10334 10337 10338 10338 10341 10344 10347 10349 10352 10355 10358 10361 10362 10362 10362 10362 10362 10362 10364 10365 10366 10367 10366 10364 10363 10364 10367 10369 10367 10365 10365 10363 10362 10362 10362 10362 10362 10364 10364 10362 10359 10356 10355 10355 10352 10348 10345 10343 10342 10339 10335
10243 10246 10249 10252 10254 10256 10259 10261 10264 10266 10268 10271 10273 10275 10276 10278 10280 10282 10283 10285 10286 10287 10288 10290 10293 10298 10300 10301 10302 10304 10305 10307 10311 10314 10315 10317 10318 10319 10321 10325 10327 10328 10332 10338 10340 10341 10342 10343 10343 10343 10342 10343 10344 10346 10346 10347 10347 10347 10347 10348 10348 10348 10349 10349 10348 10347 10346 10346 10346 10346 10347 10348 10347 10345 10342 10340 10339 10337 10335 10332 10330 10328 10326 10323 10320
10218 10220 10223 10227 10230 10233 10236 10239 10242 10244 10246 10249 10251 10254 10256 10258 10259 10261 10263 10264 10266 10266 10267 10268 10271 10274 10277 10279 10280 10281 10284 10285 10287 10290 10293 10295 10297 10299 10300 10304 10306 10308 10312 10318 10322 10322 10322 10324 10324 10324 10322 10323 10324 10325 10326 10327 10327 10329 10330 10330 10329 10329 10330 10330 10331 10331 10330 10329 10329 10330 10331 10331 10330 10328 10326 10324 10323 10321 10319 10317 10314 10311 10308 10306 10304
10194 10196 10199 10202 10205 10209 10213 10216 10219 10222 10223 10226 10228 10231 10233 10236 10237 10240 10242 10243 10245 10246 10246 10247 10249 10251 10254 10257 10258 10258 10260 10262 10264 10266 10270 10272 10275 10278 10280 10282 10284 10286 10290 10296 10300 10301 10302 10304 10305 10304 10303 10303 10304 10304 10304 10305 10306 10308 10310 10310 10310 10310 10310 10311 10313 10314 10314 10313 10314 10313 10312 10312 10312 10312 10310 10308 10307 10305 10303 10301 10298 10295 10291 10290 10288
10170 10172 10175 10178 10181 10184 10188 10192 10195 10198 10200 10203 10205 10207 10209 10211 10213 10215 10218 10220 10222 10224 10225 10226 10228 10230 10232 10234 10236 10237 10237 10239 10240 10242 10245 10248 10251 10254 10257 10260 10263 10265 10268 10273 10277 10279 10281 10283 10284 10284 10284 10284 10284 10284 10284 10284 10284 10285 10287 10289 10290 10291 10291 10292 10294 10296 10298 10299 10299 10296 10294 10292 10292 10293 10293 10292 10290 10288 10286 10283 10280 10278 10276 10273 10272
10147 10149 10152 10155 10158 10161 10165 10168 10170 10173 10175 10178 10180 10182 10184 10186 10188 10191 10193 10195 10197 10199 10201 10203 10205 10207 10209 10211 10214 10216 10217 10218 10219 10220 10222 10225 10227 10230 10233 10236 10239 10242 10246 10250 10254 10256 10259 10261 10262 10263 10264 10264 10264 10264 10263 10263 10263 10263 10264 10266 10268 10270 10271 10271 10273 10276 10280 10282 10282 10281 10278 10275 10273 10274 10275 10275 10273 10270 10268 10265 10263 10261 10260 10257 10256
10126 10128 10131 10133 10136 10139 10142 10145 10147 10148 10150 10153 10155 10157 10159 10162 10164 10166 10168 10170 10172 10174 10176 10179 10181 10183 10185 10187 10189 10192 10194 10196 10198 10200 10201 10203 10205 10207 10210 10212 10215 10218 10222 10226 10230 10232 10235 10237 10239 10240 10241 10242 10242 10243 10243 10242 10242 10242 10243 10244 10246 10247 10248 10250 10252 10256 10259 10261 10262 10262 10262 10259 10257 10255 10255 10254 10254 10253 10250 10248 10246 10245 10243 10240 10238
10106 10109 10111 10114 10116 10118 10120 10122 10124 10125 10127 10129 10131 10133 10135 10137 10140 10142 10145 10147 10149 10150 10151 10153 10156 10158 10161 10163 10165 10167 10169 10172 10175 10178 10180 10182 10184 10185 10188 10190 10193 10196 10199 10203 10206 10208 10210 10212 10213 10215 10216 10217 10218 10220 10221 10222 10222 10222 10223 10223 10225 10226 10227 10228 10231 10234 10237 10238 10239 10240 10241 10241 10240 10238 10236 10235 10235 10234 10232 10231 10230 10229 10227 10224 10221
10087 10089 10091 10093 10095 10097 10099 10100 10102 10104 10106 10107 10109 10111 10114 10116 10117 10119 10122 10124 10126 10127 10129 10130 10131 10134 10136 10139 10142 10144 10145 10147 10150 10153 10157 10160 10162 10164 10166 10168 10171 10175 10178 10181 10184 10185 10186 10187 10188 10189 10189 10190 10191 10193 10195 10198 10200 10202 10203 10203 10204 10205 10206 10207 10209 10211 10214 10216 10217 10217 10218 10219 10219 10219 10218 10216 10215 10214 10213 10213 10213 10212 10211 10208 10206
10068 10069 10071 10073 10074 10076 10078 10080 10082 10085 10086 10087 10088 10090 10093 10096 10097 10097 10099 10102 10104 10106 10107 10108 10110 10111 10113 10116 10120 10123 10125 10126 10127 10129 10132 10136 10139 10142 10144 10147 10150 10154 10158 10161 10162 10162 10161 10162 10162 10163 10165 10166 10167 10168 10170 10172 10175 10178 10181 10182 10183 10185 10186 10187 10188 10190 10191 10193 10194 10194 10195 10196 10197 10198 10198 10196 10195 10195 10194 10193 10193 10193 10192 10190 10189
10049 10050 10052 10053 10055 10057 10059 10061 10063 10066 10067 10068 10069 10069 10071 10075 10077 10078 10078 10079 10081 10084 10086 10088 10090 10092 10093 10095 10097 10100 10103 10105 10106 10107 10109 10112 10114 10118 10121 10125 10128 10132 10137 10139 10139 10137 10136 10136 10138 10139 10141 10143 10144 10146 10147 10148 10150 10153 10156 10159 10161 10163 10164 10166 10167 10168 10168 10169 10171 10173 10174 10174 10175 10177 10177 10176 10175 10175 10174 10173 10172 10172 10171 10171 10171
10029 10031 10032 10034 10037 10039 10040 10042 10044 10046 10048 10049 10050 10050 10051 10053 10056 10059 10059 10059 10059 10062 10065 10068 10070 10072 10074 10075 10076 10078 10081 10084 10086 10087 10088 10090 10092 10095 10098 10102 10106 10109 10113 10116 10116 10113 10110 10111 10114 10117 10120 10122 10123 10125 10126 10127 10128 10130 10132 10135 10138 10141 10142 10143 10144 10144 10144 10145 10148 10151 10153 10153 10154 10156 10157 10157 10156 10155 10154 10152 10151 10151 10151 10151 10150
10011 10012 10014 10016 10018 10020 10022 10024 10025 10027 10028 10030 10031 10032 10033 10034 10035 10038 10041 10042 10042 10043 10046 10049 10051 10052 10054 10056 10057 10058 10060 10062 10065 10067 10068 10070 10073 10075 10078 10081 10084 10086 10089 10092 10093 10090 10087 10088 10091 10095 10098 10101 10102 10104 10105 10107 10108 10109 10111 10113 10116 10119 10121 10121 10120 10121 10122 10123 10124 10127 10130 10132 10134 10135 10136 10137 10137 10136 10135 10133 10132 10132 10132 10132 10130
9994 9996 9998 9999 10000 10002 10005 10007 10008 10010 10011 10012 10012 10013 10015 10017 10018 10019 10022 10025 10027 10028 10029 10031 10033 10034 10035 10037 10038 10039 10040 10042 10044 10046 10048 10051 10053 10056 10058 10061 10063 10065 10067 10069 10070 10069 10067 10067 10069 10072 10076 10079 10081 10083 10085 10087 10088 10090 10091 10093 10095 10098 10100 10101 10100 10100 10102 10103 10104 10105 10107 10109 10111 10114 10116 10116 10117 10117 10117 10116 10116 10115 10115 10113 10110
9978 9980 9982 9983 9984 9986 9988 9990 9992 9993 9994 9995 9996 9996 9997 10000 10002 10003 10005 10007 10010 10012 10014 10015 10017 10017 10018 10019 10020 10021 10022 10024 10026 10027 10029 10032 10035 10037 10039 10041 10042 10044 10046 10047 10048 10048 10047 10048 10049 10052 10055 10058 10061 10063 10065 10067 10070 10072 10072 10073 10074 10076 10078 10080 10081 10081 10082 10083 10084 10085 10086 10087 10089 10092 10094 10096 10097 10098 10099 10099 10099 10099 10098 10095 10092
9962 9964 9966 9968 9969 9971 9972 9973 9975 9977 9978 9980 9981 9982 9983 9984 9986 9988 9989 9991 9993 9994 9996 9998 10000 10001 10002 10002 10003 10004 10005 10006 10008 10010 10012 10015 10017 10019 10020 10021 10023 10024 10026 10028 10028 10029 10029 10030 10031 10034 10036 10039 10041 10042 10044 10046 10050 10053 10054 10054 10054 10056 10058 10060 10062 10063 10063 10064 10065 10066 10067 10068 10069 10070 10073 10075 10077 10079 10080 10081 10082 10082 10081 10078 10077
9946 9948 9950 9953 9954 9955 9957 9958 9959 9961 9963 9964 9966 9968 9969 9970 9971 9973 9974 9976 9977 9979 9980 9981 9983 9984 9986 9986 9987 9989 9989 9990 9992 9994 9996 9998 10000 10001 10003 10004 10005 10006 10008 10009 10010 10011 10012 10013 10015 10017 10019 10020 10022 10023 10024 10027 10030 10032 10034 10036 10037 10038 10040 10042 10043 10044 10045 10046 10047 10047 10048 10049 10050 10051 10053 10056 10058 10059 10061 10062 10064 10064 10064 10063 10062
9931 9933 9935 9937 9939 9940 9941 9943 9944 9946 9948 9949 9951 9953 9955 9956 9958 9959 9960 9961 9962 9964 9965 9966 9967 9968 9970 9971 9972 9973 9974 9975 9977 9979 9981 9982 9983 9984 9986 9987 9989 9990 9991 9992 9993 9994 9995 9997 9998 10000 10001 10002 10004 10005 10007 10009 10011 10013 10014 10017 10019 10021 10022 10023 10024 10025 10027 10028 10029 10029 10030 10031 10033 10034 10036 10038 10040 10041 10043 10044 10045 10047 10047 10047 10047
9915 9917 9919 9921 9923 9925 9927 9928 9930 9932 9933 9935 9936 9938 9940 9942 9944 9945 9946 9947 9948 9949 9950 9951 9952 9953 9954 9955 9957 9958 9959 9960 9962 9964 9965 9966 9967 9968 9970 9972 9973 9974 9975 9976 9977 9978 9979 9980 9982 9984 9985 9986 9987 9988 9991 9993 9994 9995 9997 9999 10001 10003 10005 10006 10007 10008 10009 10011 10012 10013 10014 10015 10016 10018 10019 10021 10023 10025 10026 10027 10028 10030 10031 10031 10031
9899 9901 9903 9905 9907 9910 9912 9913 9915 9917 9919 9920 9922 9923 9925 9927 9929 9931 9932 9933 9934 9935 9936 9937 9937 9938 9939 9941 9942 9944 9945 9946 9947 9949 9950 9951 9952 9953 9955 9957 9958 9959 9960 9961 9962 9963 9964 9965 9967 9968 9969 9970 9971 9972 9975 9977 9978 9979 9981 9982 9984 9986 9988 9989 9991 9992 9993 9995 9996 9997 9998 9999 10001 10002 10003 10005 10007 10008 10010 10011 10013 10014 10015 10015 10016
9884 9885 9887 9889 9892 9894 9896 9898 9900 9902 9904 9906 9908 9910 9912 9913 9915 9916 9917 9918 9919 9921 9922 9923 9923 9924 9925 9927 9928 9929 9931 9932 9933 9934 9936 9937 9938 9939 9941 9942 9944 9944 9945 9946 9948 9948 9949 9951 9952 9953 9954 9955 9956 9958 9960 9961 9962 9963 9965 9966 9968 9970 9972 9973 9975 9976 9977 9979 9980 9982 9983 9984 9986 9987 9988 9990 9991 9993 9994 9996 9997 9999 10000 10001 10001
9869 9871 9873 9875 9877 9879 9881 9883 9885 9887 9890 9892 9894 9896 9898 9900 9901 9902 9903 9904 9905 9907 9908 9909 9909 9910 9911 9913 9915 9916 9917 9918 9919 9920 9922 9923 9924 9925 9927 9929 9930 9931 9932 9933 9933 9934 9935 9936 9937 9939 9940 9941 9942 9944 9945 9947 9948 9949 9949 9951 9953 9955 9957 9959 9960 9961 9962 9963 9965 9966 9968 9970 9971 9973 9974 9975 9977 9978 9980 9981 9983 9984 9985 9986 9987
9855 9857 9859 9860 9862 9864 9866 9868 9870 9873 9875 9878 9880 9882 9884 9885 9887 9888 9889 9890 9892 9893 9894 9895 9896 9897 9898 9900 9901 9902 9903 9904 9906 9907 9908 9909 9911 9912 9913 9915 9917 9918 9920 9920 9920 9921 9922 9923 9924 9925 9926 9928 9929 9930 9931 9933 9934 9935 9936 9937 9938 9940 9942 9944 9946 9947 9948 9949 9950 9952 9953 9955 9956 9958 9959 9961 9963 9964 9965 9967 9968 9969 9971 9972 9973
9840 9842 9844 9846 9848 9850 9852 9854 9856 9858 9861 9863 9865 9867 9869 9871 9872 9874 9875 9877 9878 9880 9881 9882 9883 9884 9885 9886 9887 9889 9890 9891 9893 9894 9895 9896 9898 9899 9900 9901 9903 9905 9907 9908 9908 9909 9909 9910 9911 9912 9913 9914 9916 9917 9918 9919 9921 9922 9923 9924 9925 9927 9928 9930 9932 9933 9934 9935 9937 9938 9939 9941 9942 9944 9945 9947 9948 9950 9951 9953 9954 9956 9957 9958 9959
9826 9828 9830 9832 9834 9836 9838 9840 9842 9844 9846 9848 9850 9852 9854 9857 9859 9860 9862 9864 9865 9867 9869 9869 9870 9871 9872 9873 9874 9875 9876 9878 9879 9881 9882 9884 9885 9886 9887 9888 9890 9892 9893 9895 9896 9897 9897 9898 9899 9900 9901 9902 9903 9904 9905 9906 9908 9909 9910 9911 9913 9914 9915 9916 9918 9919 9921 9922 9923 9925 9926 9927 9929 9930 9931 9933 9934 9936 9937 9939 9941 9942 9943 9944 9946
9813 9815 9817 9819 9821 9823 9825 9827 9829 9831 9833 9835 9837 9839 9841 9843 9845 9847 9849 9850 9852 9854 9856 9857 9858 9858 9859 9861 9862 9863 9863 9865 9866 9868 9869 9871 9872 9873 9875 9876 9877 9879 9880 9882 9883 9885 9885 9886 9887 9888 9889 9890 9891 9892 9893 9894 9895 9896 9897 9899 9900 9902 9903 9904 9905 9906 9908 9909 9910 9911 9913 9914 9915 9917 9918 9919 9921 9922 9924 9925 9927 9928 9930 9931 9932
9801 9802 9804 9806 9808 9810 9812 9814 9816 9818 9820 9822 9824 9826 9828 9830 9832 9834 9835 9837 9839 9841 9842 9844 9845 9846 9847 9848 9849 9850 9851 9852 9853 9854 9855 9857 9859 9861 9862 9863 9864 9866 9867 9869 9870 9872 9873 9874 9875 9875 9876 9878 9879 9880 9881 9882 9883 9884 9885 9886 9887 9889 9891 9892 9893 9894 9895 9897 9898 9899 9900 9902 9903 9904 9905 9906 9908 9909 9910 9912 9914 9915 9916 9918 9919
9788 9790 9792 9794 9795 9797 9799 9801 9803 9805 9807 9808 9810 9812 9814 9816 9818 9820 9822 9824 9826 9827 9829 9831 9832 9833 9834 9835 9836 9837 9838 9839 9840 9841 9843 9844 9846 9847 9849 9850 9852 9853 9855 9856 9857 9859 9860 9862 9863 9864 9865 9866 9866 9868 9869 9870 9871 9872 9873 9874 9875 9876 9878 9880 9881 9882 9883 9885 9886 9887 9888 9889 9890 9892 9893 9894 9895 9897 9898 9899 9900 9902 9903 9905 9906
9777 9778 9780 9781 9783 9785 9787 9788 9790 9791 9793 9795 9797 9799 9801 9802 9804 9806 9808 9810 9812 9814 9816 9817 9819 9820 9822 9823 9824 9825 9826 9827 9828 9829 9831 9832 9833 9834 9836 9838 9839 9840 9842 9843 9845 9846 9847 9849 9851 9852 9853 9854 9854 9856 9857 9858 9859 9860 9861 9862 9863 9864 9866 9867 9869 9870 9871 9873 9874 9875 9876 9878 9879 9880 9881 9882 9883 9884 9885 9887 9888 9889 9890 9892 9893
9764 9766 9768 9770 9771 9773 9775 9776 9778 9779 9780 9782 9784 9785 9787 9789 9791 9793 9795 9797 9798 9800 9802 9804 9806 9808 9809 9811 9812 9813 9814 9814 9816 9817 9819 9820 9821 9822 9824 9825 9826 9827 9829 9831 9832 9833 9834 9836 9837 9839 9840 9842 9843 9844 9845 9846 9847 9848 9849 9850 9851 9852 9854 9855 9857 9858 9859 9860 9862 9863 9864 9866 9867 9868 9869 9870 9871 9872 9873 9874 9876 9877 9878 9879 9880
9752 9753 9755 9757 9758 9760 9762 9764 9766 9767 9768 9770 9771 9773 9775 9776 9778 9780 9782 9784 9785 9787 9789 9791 9793 9795 9796 9798 9799 9801 9802 9803 9804 9805 9806 9808 9809 9810 9812 9813 9814 9815 9816 9818 9819 9821 9822 9823 9824 9826 9827 9829 9831 9832 9833 9834 9835 9836 9837 9839 9840 9841 9842 9843 9845 9846 9847 9848 9850 9851 9852 9854 9855 9856 9857 9858 9859 9860 9861 9862 9864 9865 9866 9867 9868